Location: Rodson Ranch
(38.7188°N, 119.3202°W)
Time: 12:40:11
(UTC+00:00)

Cosmos 2082 Rocket - Pass Details

Date: 29 October 2020
Orbit: 833 x 854 km, 71.0° (Epoch: 01 December)

Event Time Altitude Azimuth Distance (km) Brightness Sun altitude
Exits shadow 12:09:33 49° 194° (SSW) 1,065 2.5 -26.3°
Maximum altitude 12:11:08 84° 112° (ESE) 842 2.1 -26.0°
Drops below altitude 10° 12:16:46 10° 24° (NNE) 2,450 4.9 -24.9°
Sets 12:19:13 0° 24° (NNE) 3,390 5.7 -24.4°
